When you browse on this site, cookies collect data to enhance your experience and personalize the content and advertising you see.
Visit our Privacy Policy to learn more. By continuing to use the site, you agree to this use of cookies and data.
  • In United Kingdom
  • List of Countries
  • For 7 days
  • Water Temperature
  • Weather Map
  • Weather Widgets
  • user-avatar
    Login

    Hourly Weather Szigetszentmiklos

    Today, 26 January, Sunday

    Time Temperature Precipitation Wind Pressure Humidity
    00:00 +1°C° 0 mm 1 mps 759 mmHg 73%
    01:00 +1°C° 0 mm 1 mps 759 mmHg 73%
    02:00 +1°C° 0 mm 1 mps 758 mmHg 73%
    03:00 +1°C° 0 mm 1 mps 758 mmHg 74%
    04:00 +1°C° 0 mm 1 mps 758 mmHg 74%
    05:00 +1°C° 0 mm 1 mps 758 mmHg 75%
    06:00 +1°C° 0 mm 1 mps 758 mmHg 75%
    07:00 +1°C° 0 mm 1 mps 758 mmHg 76%
    08:00 +2°C° 0 mm 1 mps 758 mmHg 75%
    09:00 +1°C° 0 mm 2 mps 758 mmHg 74%
    10:00 +1°C° 0 mm 2 mps 759 mmHg 74%
    11:00 +2°C° 0 mm 2 mps 758 mmHg 73%
    12:00 +2°C° 0 mm 2 mps 758 mmHg 72%
    13:00 +3°C° 0 mm 2 mps 757 mmHg 71%
    14:00 +2°C° 0 mm 2 mps 757 mmHg 73%
    15:00 +2°C° 0 mm 2 mps 757 mmHg 74%
    16:00 +2°C° 0 mm 2 mps 757 mmHg 75%
    17:00 +2°C° 0 mm 2 mps 756 mmHg 76%
    18:00 +2°C° 0 mm 2 mps 756 mmHg 78%
    19:00 +1°C° 0 mm 2 mps 756 mmHg 79%
    20:00 +1°C° 0 mm 2 mps 756 mmHg 80%
    21:00 +2°C° 0 mm 1 mps 756 mmHg 80%
    22:00 +2°C° 0 mm 1 mps 756 mmHg 81%
    23:00 +2°C° 0.2 mm 1 mps 756 mmHg 83%

    Tomorrow, 27 January, Monday

    Time Temperature Precipitation Wind Pressure Humidity
    00:00 +2°C° 0.2 mm 1 mps 756 mmHg 85%
    01:00 +2°C° 0.2 mm 1 mps 756 mmHg 88%
    02:00 +2°C° 0.2 mm 1 mps 755 mmHg 89%
    03:00 +2°C° 0.2 mm 1 mps 755 mmHg 90%
    04:00 +2°C° 0.2 mm 0 mps 755 mmHg 91%
    05:00 +3°C° 0.4 mm 1 mps 755 mmHg 92%
    06:00 +3°C° 0.4 mm 1 mps 755 mmHg 92%
    07:00 +3°C° 0.4 mm 1 mps 755 mmHg 93%
    08:00 +3°C° 0.1 mm 1 mps 755 mmHg 91%
    09:00 +4°C° 0.1 mm 1 mps 755 mmHg 89%
    10:00 +4°C° 0.1 mm 1 mps 755 mmHg 86%
    11:00 +4°C° 0 mm 2 mps 755 mmHg 82%
    12:00 +5°C° 0 mm 2 mps 755 mmHg 78%
    13:00 +6°C° 0 mm 2 mps 754 mmHg 74%
    14:00 +6°C° 0 mm 2 mps 754 mmHg 76%
    15:00 +5°C° 0 mm 2 mps 754 mmHg 78%
    16:00 +5°C° 0 mm 2 mps 754 mmHg 80%
    17:00 +5°C° 0 mm 1 mps 754 mmHg 83%
    18:00 +4°C° 0 mm 1 mps 753 mmHg 85%
    19:00 +2°C° 0 mm 0 mps 753 mmHg 88%
    20:00 +2°C° 0 mm 0 mps 753 mmHg 89%
    21:00 +2°C° 0 mm 0 mps 753 mmHg 89%
    22:00 +2°C° 0 mm 0 mps 753 mmHg 90%
    23:00 +3°C° 0 mm 1 mps 752 mmHg 91%

    Day after tomorrow, 28 January, Tuesday

    Time Temperature Precipitation Wind Pressure Humidity
    00:00 +3°C° 0 mm 1 mps 752 mmHg 92%
    01:00 +2°C° 0 mm 2 mps 751 mmHg 93%
    02:00 +2°C° 0 mm 2 mps 751 mmHg 93%
    03:00 +2°C° 0 mm 2 mps 750 mmHg 94%
    04:00 0°C° 0 mm 3 mps 749 mmHg 95%
    05:00 +1°C° 0 mm 3 mps 749 mmHg 95%
    06:00 0°C° 0 mm 4 mps 748 mmHg 95%
    07:00 0°C° 0 mm 4 mps 748 mmHg 95%
    08:00 +1°C° 0.4 mm 5 mps 747 mmHg 93%
    09:00 +2°C° 0.4 mm 6 mps 747 mmHg 92%
    10:00 +3°C° 0.4 mm 7 mps 746 mmHg 90%
    11:00 +3°C° 0.2 mm 7 mps 745 mmHg 88%
    12:00 +4°C° 0.2 mm 7 mps 745 mmHg 87%
    13:00 +5°C° 0.2 mm 7 mps 744 mmHg 85%
    14:00 +5°C° 0.5 mm 7 mps 743 mmHg 85%
    15:00 +5°C° 0.5 mm 6 mps 743 mmHg 86%
    16:00 +7°C° 0.5 mm 6 mps 742 mmHg 86%
    17:00 +5°C° 1.7 mm 6 mps 742 mmHg 89%
    18:00 +6°C° 1.7 mm 5 mps 741 mmHg 91%
    19:00 +6°C° 1.7 mm 5 mps 740 mmHg 94%
    20:00 +4°C° 3.1 mm 6 mps 740 mmHg 93%
    21:00 +3°C° 3.1 mm 7 mps 740 mmHg 92%
    22:00 +1°C° 3.1 mm 9 mps 740 mmHg 91%
    23:00 +1°C° 0.2 mm 9 mps 740 mmHg 83%

    29 January, Wednesday

    Time Temperature Precipitation Wind Pressure Humidity
    00:00 +1°C° 0.2 mm 10 mps 740 mmHg 75%
    01:00 +1°C° 0.2 mm 10 mps 741 mmHg 67%
    02:00 +1°C° 0 mm 9 mps 741 mmHg 65%
    03:00 +1°C° 0 mm 9 mps 742 mmHg 64%
    04:00 0°C° 0 mm 8 mps 743 mmHg 63%
    05:00 0°C° 0 mm 7 mps 743 mmHg 65%
    06:00 -1°C° 0 mm 6 mps 744 mmHg 68%
    07:00 0°C° 0 mm 5 mps 744 mmHg 71%
    08:00 +1°C° 0 mm 4 mps 745 mmHg 70%
    09:00 +3°C° 0 mm 4 mps 745 mmHg 68%
    10:00 +4°C° 0 mm 4 mps 745 mmHg 67%
    11:00 +5°C° 0 mm 4 mps 745 mmHg 63%
    12:00 +5°C° 0 mm 4 mps 744 mmHg 59%
    13:00 +6°C° 0 mm 4 mps 744 mmHg 55%
    14:00 +5°C° 0.1 mm 4 mps 744 mmHg 63%
    15:00 +4°C° 0.1 mm 4 mps 745 mmHg 71%
    16:00 +2°C° 0.1 mm 5 mps 745 mmHg 79%
    17:00 +2°C° 0 mm 5 mps 746 mmHg 79%
    18:00 +1°C° 0 mm 4 mps 746 mmHg 79%
    19:00 +1°C° 0 mm 4 mps 747 mmHg 79%
    20:00 +1°C° 0 mm 5 mps 747 mmHg 75%
    21:00 +1°C° 0 mm 5 mps 748 mmHg 71%
    22:00 -1°C° 0 mm 6 mps 748 mmHg 66%
    23:00 0°C° 0 mm 5 mps 749 mmHg 68%

    30 January, Thursday

    Time Temperature Precipitation Wind Pressure Humidity
    00:00 0°C° 0 mm 5 mps 749 mmHg 69%
    01:00 -1°C° 0 mm 5 mps 749 mmHg 71%
    02:00 -1°C° 0 mm 5 mps 750 mmHg 72%
    03:00 -1°C° 0 mm 5 mps 750 mmHg 74%
    04:00 -1°C° 0 mm 5 mps 750 mmHg 75%
    05:00 -1°C° 0 mm 5 mps 751 mmHg 76%
    06:00 -1°C° 0 mm 5 mps 751 mmHg 77%
    07:00 -1°C° 0 mm 5 mps 752 mmHg 79%
    08:00 -1°C° 0 mm 6 mps 752 mmHg 73%
    09:00 -1°C° 0 mm 7 mps 753 mmHg 68%
    10:00 0°C° 0 mm 8 mps 753 mmHg 63%
    11:00 +1°C° 0 mm 8 mps 753 mmHg 61%
    12:00 +1°C° 0 mm 8 mps 753 mmHg 59%
    13:00 +3°C° 0 mm 7 mps 753 mmHg 58%
    14:00 +3°C° 0 mm 6 mps 753 mmHg 59%
    15:00 +3°C° 0 mm 6 mps 753 mmHg 61%
    16:00 +2°C° 0 mm 5 mps 754 mmHg 62%
    17:00 +3°C° 0 mm 4 mps 754 mmHg 65%
    18:00 +1°C° 0 mm 4 mps 754 mmHg 68%
    19:00 0°C° 0 mm 4 mps 754 mmHg 71%
    20:00 0°C° 0 mm 4 mps 755 mmHg 73%
    21:00 0°C° 0 mm 4 mps 755 mmHg 74%
    22:00 0°C° 0 mm 3 mps 755 mmHg 75%
    23:00 0°C° 0 mm 3 mps 755 mmHg 76%

    31 January, Friday

    Time Temperature Precipitation Wind Pressure Humidity
    00:00 0°C° 0 mm 3 mps 755 mmHg 77%
    01:00 0°C° 0 mm 3 mps 755 mmHg 78%
    02:00 +1°C° 0 mm 2 mps 755 mmHg 78%
    03:00 +1°C° 0 mm 2 mps 755 mmHg 78%
    04:00 +1°C° 0 mm 2 mps 755 mmHg 78%
    05:00 +1°C° 0 mm 2 mps 755 mmHg 77%
    06:00 +2°C° 0 mm 1 mps 755 mmHg 77%
    07:00 +2°C° 0 mm 1 mps 755 mmHg 76%
    08:00 +3°C° 0 mm 1 mps 755 mmHg 73%
    09:00 +3°C° 0 mm 2 mps 756 mmHg 69%
    10:00 +4°C° 0 mm 2 mps 756 mmHg 66%
    11:00 +4°C° 0 mm 2 mps 755 mmHg 63%
    12:00 +6°C° 0 mm 1 mps 755 mmHg 60%
    13:00 +7°C° 0 mm 1 mps 755 mmHg 57%
    14:00 +6°C° 0 mm 1 mps 755 mmHg 59%
    15:00 +6°C° 0 mm 1 mps 755 mmHg 62%
    16:00 +5°C° 0 mm 0 mps 755 mmHg 64%
    17:00 +4°C° 0 mm 0 mps 755 mmHg 67%
    18:00 +4°C° 0 mm 0 mps 755 mmHg 69%
    19:00 +3°C° 0 mm 0 mps 755 mmHg 72%
    20:00 +3°C° 0 mm 0 mps 755 mmHg 73%
    21:00 +3°C° 0 mm 0 mps 755 mmHg 74%
    22:00 +2°C° 0 mm 0 mps 755 mmHg 76%
    23:00 +3°C° 0 mm 1 mps 755 mmHg 76%
    Show more